Weather in Jeffreys Bay

South Africa     34°02′51″S   24°55′13″E
temp.,
°C
wind,
m/s
gust,
m/s
humid.,
%
clouds,
%
prec.,
mm/h
press.,
hPa
HPBL,
m
22 april, thu
thu2223:00+20e6992100 0.1 1018295
02:00+20sse2492100 0.3 101883
05:00+19e589092 0.3 1019361
08:00+20e488927 0.3 1020532
11:00+23ese457015 0.0 1020565
14:00+23e99662 0.0 1018708
17:00+22e710700 0.0 1018486
20:00+20ene713831 0.0 1020621
23 april, fri
fri2323:00+20ene815770 0.0 1019643
02:00+19ene510790 0.0 1018379
05:00+18ene611790 0.0 1017378
08:00+18ene610770 0.0 1017370
11:00+23ene78560 0.0 1016487
14:00+25e895299 0.0 1014608
17:00+23e914686 0.0 1014435
20:00+20ene8137610 0.0 1015416
24 april, sat
sat2423:00+19ene3581100 0.0 1016211
02:00+17w2489100 0.0 1016149
05:00+18sw348345 0.0 1016471
08:00+18wsw337672 0.0 1017650
11:00+20ssw3369100 0.0 1016620
14:00+19s4376100 0.0 1015407
17:00+19s337762 0.0 1015334
20:00+17wsw12858 0.0 1017133
25 april, sun
sun2523:00+16n228598 0.0 101681
02:00+16ne22803 0.0 1015110
05:00+16nne227420 0.0 101392
08:00+18nne226282 0.0 1014105
11:00+24ese234866 0.0 1012287
14:00+25se4656100 0.0 1010287
17:00+23e4662100 0.0 100968
20:00+21ene3466100 0.0 101045
26 april, mon
mon2623:00+20wsw3577100 0.0 101191
02:00+19w2468100 0.0 1011109
05:00+18w2473100 0.0 1010102
08:00+20w2261100 0.0 101170
11:00+22sw4555100 0.0 1013339
14:00+22ssw5559100 0.0 1011413
17:00+20ssw3374100 0.0 1011273
20:00+18w4586100 0.0 1013210